1340064025977,59.4169
1340064085977,59.2435
1340064145977,59.1096
1340064205977,59.1292
1340064265977,59.0856
1340064325977,59.1149
1340064385977,59.1029
1340064445977,59.0540
1340064505977,58.9979
1340064565977,59.0399
1340064625977,59.0903
1340064685977,59.0879
1340064745977,59.2556
1340064805977,59.2163
1340064865977,59.2175
1340064925977,59.0767
1340064985977,59.1890
1340065045977,59.1994
1340065105977,59.1817
1340065165977,59.1386
1340065225977,59.1826
1340065285977,59.2716
1340065345977,59.3172
1340065405977,59.0576
1340065465977,59.2342
1340065525977,59.1857
1340065585977,59.2359
1340065645977,59.1025
1340065705977,59.1972
1340065765977,58.8939
1340065825977,59.0739
1340065885977,59.0794
1340065945977,59.1724
1340066005977,59.1545
1340066065977,59.0283
1340066125977,58.9395
1340066185977,59.1527
1340066245977,59.1479
1340066305977,59.0167
1340066365977,59.2079
1340066425977,58.9720
1340066485977,58.9233
1340066545977,59.1375
1340066605977,59.0709
1340066665977,59.0792
1340066725977,58.8663
1340066785977,58.7616
1340066845977,59.1368
1340066905977,59.1095
1340066965977,59.0658
1340067025977,59.0722
1340067085977,59.0361
1340067145977,58.9366
1340067205977,59.1430
1340067265977,59.0521
1340067325977,58.9315
1340067385977,58.9948
1340067445977,59.1518
1340067505977,58.9457
1340067565977,58.9443
1340067625987,59.0453
1340067685987,58.9186
1340067745987,59.0060
1340067805987,58.8408
1340067865987,58.9218
1340067925987,58.7210
1340067985987,58.8098
1340068045987,58.7886
1340068105987,58.7688
1340068165987,58.7946
1340068225987,58.7910
1340068285987,58.7495
1340068345987,58.8665
1340068405987,58.6588
1340068465987,58.8445
1340068525987,58.7721
1340068585987,58.8738
1340068645987,58.7743
1340068705987,58.7711
1340068765987,58.8254
1340068825987,58.7188
1340068885987,58.8728
1340068945987,58.9048
1340069005987,58.8330
1340069065987,58.7677
1340069125987,58.8434
1340069185987,59.1104
1340069245987,58.8944
1340069305987,58.8867
1340069365987,58.7469
1340069425987,58.8684
1340069485987,58.9447
1340069545987,58.9999
1340069605987,58.9046
1340069665987,58.9109
1340069725987,58.8727
1340069785987,58.7901
1340069845987,58.9371
1340069905987,58.8252
1340069965987,58.9461
1340070025987,58.8002
1340070085987,58.8609
1340070145987,58.9717
1340070205987,58.9133
1340070265987,58.8559
1340070325987,58.9229
1340070385987,58.8818
1340070445987,58.8979
1340070505987,59.2300
1340070565987,58.6859
1340070625987,58.8071
1340070685987,58.9826
1340070745987,58.7231
1340070805987,58.7867
1340070865987,58.9773
1340070925987,58.8723
1340070985987,58.8895
1340071045987,58.9145
1340071105987,58.8881
1340071165987,58.8020
1340071225997,58.9413
1340071285997,58.6644
1340071345997,58.7804
1340071405997,59.0248
1340071465997,58.6667
1340071525997,58.7025
1340071585997,58.7958
1340071645997,58.8132
1340071705997,58.8612
1340071765997,58.8483
1340071825997,58.9212
1340071885997,58.8297
1340071945997,58.8125
1340072005997,58.9666
1340072065997,58.9616
1340072125997,58.8871
1340072185997,58.9681
1340072245997,58.9790
1340072305997,58.8505
1340072365997,58.8774
1340072425997,58.7854
1340072485997,58.9338
1340072545997,58.9371
1340072605997,58.7457
1340072665997,58.6442
1340072725997,58.7471
1340072785997,58.9749
1340072845997,58.7845
1340072905997,58.7408
1340072965997,58.8925
1340073025997,58.7170
1340073085997,59.0071
1340073145997,58.7627
1340073205997,58.8244
1340073265997,58.8304
1340073325997,58.7917
1340073385997,58.9745
1340073445997,58.6976
1340073505997,58.7572
1340073565997,58.6998
1340073625997,58.9116
1340073685997,58.6988
1340073745997,58.7758
1340073805997,58.6996
1340073865997,58.8855
1340073925997,58.8300
1340073985997,58.7770
1340074045997,58.7224
1340074105997,58.8124
1340074165997,58.8197
1340074225997,58.7309
1340074285997,58.6332
1340074345997,58.7234
1340074405997,58.8142
1340074465997,58.7293
1340074525997,58.7466
1340074585997,58.7011
1340074645997,58.7591
1340074705997,58.6898
1340074765997,58.6563
1340074826007,58.7865
1340074886007,58.6279
1340074946007,58.7217
1340075006007,58.7281
1340075066007,58.6876
1340075126007,58.6067
1340075186007,58.5688
1340075246007,58.6774
1340075306007,58.6725
1340075366007,58.4648
1340075426007,58.5460
1340075486007,58.5119
1340075546007,58.6012
1340075606007,58.5253
1340075666007,58.5064
1340075726007,58.3882
1340075786007,58.4762
1340075846007,58.6379
1340075906007,58.5251
1340075966007,58.5359
1340076026007,58.3924
1340076086007,58.4177
1340076146007,58.4014
1340076206007,58.5034
1340076266007,58.4316
1340076326007,58.3991
1340076386007,58.4814
1340076446007,58.5191
1340076506007,58.4472
1340076566007,58.5422
1340076626007,58.4568
1340076686007,58.5496
1340076746007,58.3343
1340076806007,58.4023
1340076866007,58.5179
1340076926007,58.3953
1340076986007,58.3741
1340077046007,58.3154
1340077106007,58.4197
1340077166007,58.3669
1340077226007,58.3843
1340077286007,58.4997
1340077346007,58.4536
1340077406007,58.5027
1340077466007,58.3667
1340077526007,58.4119
1340077586007,58.3988
1340077646007,58.6247
1340077706007,58.5461
1340077766007,58.5370
1340077826007,58.2957
1340077886007,58.3353
1340077946007,58.3716
1340078006007,58.4459
1340078066007,58.3666
1340078126007,58.5044
1340078186007,58.3969
1340078246007,58.3903
1340078306007,58.3641
1340078366007,58.2895
1340078426016,58.3861
1340078486016,58.2101
1340078546016,58.3879
1340078606016,58.3437
1340078666016,58.1960
1340078726016,58.3574
1340078786016,58.1989
1340078846016,58.3808
1340078906016,58.1105
1340078966016,58.1768
1340079026016,58.1958
1340079086016,58.1299
1340079146016,58.3129
1340079206016,58.3404
1340079266016,58.1553
1340079326016,58.1908
1340079386016,58.1922
1340079446016,58.2559
1340079506016,58.0846
1340079566016,58.2357
1340079626016,58.1362
1340079686016,58.2946
1340079746016,58.3304
1340079806016,58.3231
1340079866016,58.0962
1340079926016,58.1250
1340079986016,58.2063
1340080046016,58.2210
1340080106016,58.0977
1340080166016,58.1150
1340080226016,57.9910
1340080286016,58.3336
1340080346016,58.2840
1340080406016,57.9778
1340080466016,58.0615
1340080526016,58.0244
1340080586016,58.2526
1340080646016,58.0857
1340080706016,58.1034
1340080766016,58.0892
1340080826016,58.0785
1340080886016,58.0948
1340080946016,58.0741
1340081006016,58.1075
1340081066016,58.1962
1340081126016,58.1089
1340081186016,57.9359
1340081246016,58.1125
1340081306016,58.1349
1340081366016,58.1077
1340081426016,58.1112
1340081486016,57.9609
1340081546016,58.0622
1340081606016,58.1197
1340081666016,58.0147
1340081726016,57.9449
1340081786016,58.0418
1340081846016,57.9680
1340081906016,58.0563
1340081966016,57.9130
1340082026025,58.1486
1340082086025,58.2133
1340082146025,57.9045
1340082206025,57.8995
1340082266025,57.9986
1340082326025,58.0798
1340082386025,58.0586
1340082446025,58.0631
1340082506025,58.2233
1340082566025,58.0853
1340082626025,58.1300
1340082686025,58.0760
1340082746025,58.2203
1340082806025,58.1454
1340082866025,57.9998
1340082926025,58.2458
1340082986025,58.2720
1340083046025,58.3580
1340083106025,58.0683
1340083166025,58.2477
1340083226025,58.1309
1340083286025,58.2257
1340083346025,58.0504
1340083406025,58.2809
1340083466025,58.4077
1340083526025,58.2844
1340083586025,58.5032
1340083646025,58.3819
1340083706025,58.3398
1340083766025,58.3871
1340083826025,58.3912
1340083886025,58.4473
1340083946025,58.4819
1340084006025,58.6092
1340084066025,58.7266
1340084126025,58.6157
1340084186025,58.5206
1340084246025,58.4988
1340084306025,58.5881
1340084366025,58.6547
1340084426025,58.6426
1340084486025,58.5219
1340084546025,58.6994
1340084606025,58.6368
1340084666025,58.6802
1340084726025,58.6725
1340084786025,58.6712
1340084846025,58.5835
1340084906025,58.6394
1340084966025,58.6635
1340085026025,58.6738
1340085086025,58.6119
1340085146025,58.5773
1340085206025,58.4878
1340085266025,58.5395
1340085326025,58.5751
1340085386025,58.5711
1340085446025,58.6661
1340085506025,58.7576
1340085566025,58.4399
1340085626035,58.2810
1340085686035,58.3352
1340085746035,58.4995
1340085806035,58.3695
1340085866035,58.1718
1340085926035,58.2437
1340085986035,58.4057
1340086046035,58.3017
1340086106035,58.2435
1340086166035,58.3587
1340086226035,58.1869
1340086286035,58.5321
1340086346035,58.2781
1340086406035,58.3509
1340086466035,58.4512
1340086526035,58.3564
1340086586035,58.2247
1340086646035,58.2459
1340086706035,58.3225
1340086766035,58.3747
1340086826035,58.3138
1340086886035,58.3260
1340086946035,58.2329
1340087006035,58.4051
1340087066035,58.3248
1340087126035,58.4329
1340087186035,58.3747
1340087246035,58.5243
1340087306035,58.4128
1340087366035,58.4339
1340087426035,58.4338
1340087486035,58.3441
1340087546035,58.4315
1340087606035,58.2859
1340087666035,58.5729
1340087726035,58.5349
1340087786035,58.5572
1340087846035,58.5395
1340087906035,58.6421
1340087966035,58.8251
1340088026035,58.7373
1340088086035,58.6691
1340088146035,58.6776
1340088206035,58.7881
1340088266035,58.6566
1340088326035,58.6876
1340088386035,58.6025
1340088446035,58.7846
1340088506035,58.7582
1340088566035,58.6976
1340088626035,58.6659
1340088686035,58.7380
1340088746035,58.6404
1340088806035,58.5536
1340088866035,58.5630
1340088926035,58.5114
1340088986035,58.4152
1340089046035,58.4487
1340089106035,58.4903
1340089166035,58.3569
1340089226044,58.3784
1340089286044,58.4143
1340089346044,58.4233
1340089406044,58.3533
1340089466044,58.3714
1340089526044,58.4537
1340089586044,58.2815
1340089646044,58.1742
1340089706044,58.3716
1340089766044,58.1485
1340089826044,58.2979
1340089886044,58.2707
1340089946044,58.3333
1340090006044,58.4104
1340090066044,58.2407
1340090126044,58.2446
1340090186044,58.0725
1340090246044,58.1377
1340090306044,58.4080
1340090366044,58.2627
1340090426044,58.1610
1340090486044,58.2460
1340090546044,58.2107
1340090606044,58.2102
1340090666044,58.1406
1340090726044,58.3375
1340090786044,58.1557
1340090846044,58.1762
1340090906044,58.2516
1340090966044,58.2340
1340091026044,58.1059
1340091086044,58.1940
1340091146044,58.0273
1340091206044,58.1468
1340091266044,58.1402
1340091326044,58.2084
1340091386044,58.0013
1340091446044,58.1259
1340091506044,58.1424
1340091566044,58.1782
1340091626044,58.1315
1340091686044,58.1415
1340091746044,58.0906
1340091806044,57.8979
1340091866044,58.0413
1340091926044,58.1384
1340091986044,58.0383
1340092046044,58.0328
1340092106044,58.0050
1340092166044,58.1388
1340092226044,58.0169
1340092286044,58.1186
1340092346044,58.1033
1340092406044,58.0865
1340092466044,58.1567
1340092526044,58.0660
1340092586044,58.1844
1340092646044,58.0950
1340092706044,58.0473
1340092766044,58.0543
1340092826053,57.9666
1340092886053,58.1416
1340092946053,58.1225
1340093006053,58.1367
1340093066053,58.1762
1340093126053,59.6458
1340093186053,57.9921
1340093246053,58.0502
1340093306053,58.0794
1340093366053,58.1391
1340093426053,58.1037
1340093486053,58.0411
1340093546053,58.1540
1340093606053,57.9781
1340093666053,58.1050
1340093726053,58.1922
1340093786053,58.1913
1340093846053,58.0960
1340093906053,58.1604
1340093966053,58.1540
1340094026053,58.0256
1340094086053,58.1693
1340094146053,57.9880
1340094206053,58.1671
1340094266053,58.1461
1340094326053,58.0324
1340094386053,58.1211
1340094446053,58.1012
1340094506053,57.8924
1340094566053,57.9992
1340094626053,58.2324
1340094686053,58.0457
1340094746053,58.0738
1340094806053,57.9145
1340094866053,58.0590
1340094926053,57.9182
1340094986053,57.9206
1340095046053,58.1693
1340095106053,58.1325
1340095166053,58.0100
1340095226053,58.0187
1340095286053,58.0821
1340095346053,58.0886
1340095406053,58.1428
1340095466053,58.1385
1340095526053,58.1477
1340095586053,58.1690
1340095646053,58.0460
1340095706053,58.1746
1340095766053,58.0091
1340095826053,58.2615
1340095886053,58.1572
1340095946053,57.9555
1340096006053,58.0887
1340096066053,57.9318
1340096126053,57.9935
1340096186053,58.0639
1340096246053,57.9437
1340096306053,58.3881
1340096366053,57.9332
1340096426062,57.8944
1340096486062,57.9980
1340096546062,58.1484
1340096606062,58.0764
1340096666062,57.9386
1340096726062,58.0691
1340096786062,58.0848
1340096846062,58.0452
1340096906062,58.2394
1340096966062,57.8573
1340097026062,58.2689
1340097086062,58.0065
1340097146062,57.9992
1340097206062,57.9518
1340097266062,57.9788
1340097326062,57.8702
1340097386062,58.0827
1340097446062,58.1078
1340097506062,58.0051
1340097566062,57.9307
1340097626062,57.9329
1340097686062,57.8880
1340097746062,58.1229
1340097806062,57.8104
1340097866062,57.8524
1340097926062,57.9450
1340097986062,57.8362
1340098046062,57.9549
1340098106062,57.9568
1340098166062,57.9535
1340098226062,57.9344
1340098286062,57.8326
1340098346062,57.9143
1340098406062,57.7779
1340098466062,58.0576
1340098526062,58.1274
1340098586062,57.8242
1340098646062,57.9049
1340098706062,57.9418
1340098766062,57.9358
1340098826062,57.8965
1340098886062,57.8565
1340098946062,57.7929
1340099006062,57.9440
1340099066062,57.9562
1340099126062,57.7384
1340099186062,57.7201
1340099246062,57.7908
1340099306062,58.0660
1340099366062,57.8370
1340099426062,57.8836
1340099486062,57.7744
1340099546062,57.6757
1340099606062,57.9536
1340099666062,57.7956
1340099726062,58.1278
1340099786062,57.9774
1340099846062,57.7424
1340099906062,57.8825
1340099966062,57.8180
1340100026071,57.7731
1340100086071,57.9736
1340100146071,57.8968
1340100206071,57.9234
1340100266071,57.7547
1340100326071,57.8545
1340100386071,57.9342
1340100446071,57.8782
1340100506071,57.8979
1340100566071,58.0050
1340100626071,57.9533
1340100686071,57.9685
1340100746071,57.7775
1340100806071,57.9995
1340100866071,57.5595
1340100926071,57.8151
1340100986071,58.2126
1340101046071,57.7968
1340101106071,57.9766
1340101166071,58.0052
1340101226071,58.0636
1340101286071,58.1700
1340101346071,57.9271
1340101406071,57.9665
1340101466071,58.2148
1340101526071,58.1303
1340101586071,58.1147
1340101646071,57.9542
1340101706071,58.2473
1340101766071,58.1474
1340101826071,58.1612
1340101886071,58.3066
1340101946071,58.3691
1340102006071,58.0098
1340102066071,58.1445
1340102126071,58.1842
1340102186071,58.2013
1340102246071,58.1912
1340102306071,58.1109
1340102366071,58.2189
1340102426071,58.3619
1340102486071,58.2009
1340102546071,58.1164
1340102606071,58.2428
1340102666071,58.2978
1340102726071,58.0167
1340102786071,58.1650
1340102846071,58.1304
1340102906071,58.2076
1340102966071,58.2432
1340103026071,58.4947
1340103086071,58.3101
1340103146071,58.2238
1340103206071,58.3829
1340103266071,58.3606
1340103326071,58.0617
1340103386071,58.1415
1340103446071,58.3662
1340103506071,58.2364
1340103566071,58.4088
1340103626080,58.3408
1340103686080,58.3487
1340103746080,58.4257
1340103806080,58.3375
1340103866080,58.5174
1340103926080,58.3185
1340103986080,58.0897
1340104046080,58.3385
1340104106080,58.3708
1340104166080,58.2414
1340104226080,58.5050
1340104286080,58.3250
1340104346080,58.3841
1340104406080,58.2953
1340104466080,58.4015
1340104526080,58.3672
1340104586080,58.3158
1340104646080,58.3730
1340104706080,58.2075
1340104766080,58.3641
1340104826080,58.2965
1340104886080,58.2666
1340104946080,58.2813
1340105006080,58.4616
1340105066080,58.3651
1340105126080,58.3195
1340105186080,58.1353
1340105246080,58.2241
1340105306080,58.4080
1340105366080,58.3664
1340105426080,58.2658
1340105486080,58.0796
1340105546080,58.4485
1340105606080,58.3727
1340105666080,58.4151
1340105726080,58.4764
1340105786080,58.3494
1340105846080,58.2286
1340105906080,58.3943
1340105966080,58.2173
1340106026080,58.4210
1340106086080,58.2280
1340106146080,58.3865
1340106206080,58.5270
1340106266080,58.3273
1340106326080,58.4343
1340106386080,58.3308
1340106446080,58.4122
1340106506080,58.3063
1340106566080,58.3648
1340106626080,58.4253
1340106686080,58.3483
1340106746080,58.2379
1340106806080,58.3246
1340106866080,58.5726
1340106926080,58.5708
1340106986080,58.4905
1340107046080,58.6015
1340107106080,58.5328
1340107166080,58.4958
1340107226089,58.3542
1340107286089,58.4068
1340107346089,58.4492
1340107406089,58.4866
1340107466089,58.2423
1340107526089,58.4318
1340107586089,58.4345
1340107646089,58.5692
1340107706089,58.4515
1340107766089,58.4934
1340107826089,58.4781
1340107886089,58.5147
1340107946089,58.5892
1340108006089,58.4551
1340108066089,58.5713
1340108126089,58.5645
1340108186089,58.6763
1340108246089,58.5855
1340108306089,58.3843
1340108366089,58.5908
1340108426089,58.5578
1340108486089,58.5443
1340108546089,58.5302
1340108606089,58.6852
1340108666089,58.5183
1340108726089,58.5021
1340108786089,58.4990
1340108846089,58.6194
1340108906089,58.5142
1340108966089,58.5371
1340109026089,58.6151
1340109086089,58.4934
1340109146089,58.7308
1340109206089,58.6308
1340109266089,58.8012
1340109326089,58.6174
1340109386089,58.6857
1340109446089,58.6271
1340109506089,58.7106
1340109566089,58.5414
1340109626089,58.6195
1340109686089,58.5496
1340109746089,58.6854
1340109806089,58.5721
1340109866089,58.6949
1340109926089,58.5834
1340109986089,58.7357
1340110046089,58.5968
1340110106089,58.7748
1340110166089,58.7293
1340110226089,58.5325
1340110286089,58.6967
1340110346089,58.6526
1340110406089,58.6760
1340110466089,58.7490
1340110526089,58.6066
1340110586089,58.7553
1340110646089,58.7959
1340110706089,58.7200
1340110766089,58.6139
1340110826098,58.7849
1340110886098,58.8637
1340110946098,58.7498
1340111006098,58.6493
1340111066098,58.8848
1340111126098,58.7378
1340111186098,58.7914
1340111246098,58.9189
1340111306098,58.8502
1340111366098,59.0011
1340111426098,59.0236
1340111486098,58.7421
1340111546098,58.7698
1340111606098,58.8131
1340111666098,58.8120
1340111726098,58.7973
1340111786098,59.0564
1340111846098,58.8329
1340111906098,58.7910
1340111966098,58.7379
1340112026098,58.8323
1340112086098,59.0774
1340112146098,58.8055
1340112206098,58.9807
1340112266098,58.8917
1340112326098,58.7828
1340112386098,59.0772
1340112446098,59.0896
1340112506098,59.0051
1340112566098,58.8757
1340112626098,58.8879
1340112686098,59.0895
1340112746098,59.0152
1340112806098,59.1176
1340112866098,58.9511
1340112926098,59.1554
1340112986098,59.0098
1340113046098,58.9557
1340113106098,59.1115
1340113166098,59.1729
1340113226098,59.0051
1340113286098,58.8718
1340113346098,59.0268
1340113406098,59.0506
1340113466098,59.0998
1340113526098,58.9171
1340113586098,58.8099
1340113646098,58.9876
1340113706098,58.8813
1340113766098,58.7982
1340113826098,58.7203
1340113886098,58.8294
1340113946098,58.9009
1340114006098,58.8398
1340114066098,58.9155
1340114126098,58.9899
1340114186098,59.0769
1340114246098,59.8964
1340114306098,58.9184
1340114366098,59.0025
1340114426107,58.8428
1340114486107,59.0195
1340114546107,58.9794
1340114606107,58.8703
1340114666107,58.9992
1340114726107,58.9249
1340114786107,58.8000
1340114846107,58.7296
1340114906107,58.7495
1340114966107,58.7129
1340115026107,58.7813
1340115086107,58.9156
1340115146107,58.8420
1340115206107,58.9765
1340115266107,59.0246
1340115326107,58.7808
1340115386107,58.9453
1340115446107,58.9500
1340115506107,58.8048
1340115566107,58.6629
1340115626107,58.6594
1340115686107,58.8437
1340115746107,58.7568
1340115806107,58.8188
1340115866107,58.8227
1340115926107,58.8340
1340115986107,58.7197
1340116046107,58.8160
1340116106107,58.7757
1340116166107,58.7392
1340116226107,58.8198
1340116286107,58.6496
1340116346107,58.7946
1340116406107,58.8201
1340116466107,58.6406
1340116526107,58.5799
1340116586107,58.4862
1340116646107,58.7215
1340116706107,58.6289
1340116766107,58.7147
1340116826107,58.6669
1340116886107,58.7942
1340116946107,58.7252
1340117006107,58.7181
1340117066107,58.5648
1340117126107,58.9309
1340117186107,58.8366
1340117246107,58.7345
1340117306107,58.7035
1340117366107,58.5756
1340117426107,58.5403
1340117486107,58.7179
1340117546107,58.8366
1340117606107,58.6727
1340117666107,58.4700
1340117726107,58.5209
1340117786107,58.7088
1340117846107,58.6527
1340117906107,58.6276
1340117966107,58.7220
1340118026117,58.6859
1340118086117,58.7088
1340118146117,58.7345
1340118206117,58.5303
1340118266117,58.6651
1340118326117,58.7853
1340118386117,58.6897
1340118446117,58.8724
1340118506117,58.6178
1340118566117,58.6457
1340118626117,58.7816
1340118686117,58.7987
1340119226117,58.7483
1340119286117,55.4418
1340119346117,58.8934
1340119406117,58.8039
1340119466117,58.8736
1340119526117,58.8575
1340119586117,58.8539
1340119646117,58.9859
1340119706117,59.0469
1340119766117,58.7916
1340119826117,58.9971
1340119886117,59.0926
1340119946117,59.0637
1340120006117,58.9484
1340120066117,58.8665
1340120126117,58.8377
1340120186117,59.2124
1340120246117,59.0184
1340120306117,59.0339
1340120366117,58.9726
1340120426117,58.9104
1340120486117,58.8258
1340120546117,59.0430
1340120606117,59.0966
1340120666117,59.0844
1340120726117,59.1349
1340120786117,58.9976
1340120846117,58.9702
1340120906117,58.9449
1340120966117,59.1796
1340121026117,59.1923
1340121086117,59.2039
1340121146117,59.1703
1340121206117,59.0858
1340121266117,59.0179
1340121326117,59.0883
1340121386117,59.0144
1340121446117,59.0439
1340121506117,59.0051
1340121566117,58.9302
1340121626126,59.1247
1340121686126,58.9847
1340121746126,59.0035
1340121806126,59.0430
1340121866126,59.0943
1340121926126,58.7868
1340121986126,58.7335
1340122046126,59.0723
1340122106126,58.7234
1340122166126,58.7021
1340122226126,58.7268
1340122286126,58.7809
1340122346126,58.6683
1340122406126,58.6871
1340122466126,58.6582
1340122526126,58.7831
1340122586126,58.6247
1340122646126,58.7490
1340122706126,58.6741
1340122766126,58.7988
1340122826126,58.6882
1340122886126,58.6857
1340122946126,58.7362
1340123006126,58.5320
1340123066126,58.7047
1340123126126,59.0734
1340123186126,58.6864
1340123246126,58.5828
1340123306126,58.6836
1340123366126,58.7243
1340123426126,58.5607
1340123486126,58.6045
1340123546126,58.5526
1340123606126,58.5358
1340123666126,58.7336
1340123726126,58.7010
1340123786126,58.5399
1340123846126,58.7455
1340123906126,58.5586
1340123966126,58.5505
1340124026126,58.4873
1340124086126,58.5261
1340124146126,58.5178
1340124206126,58.4444
1340124266126,58.3972
1340124326126,58.4362
1340124386126,58.4854
1340124446126,58.4714
1340124506126,58.2926
1340124566126,58.2622
1340124626126,58.4305
1340124686126,58.5042
1340124746126,58.3843
1340124806126,58.2481
1340124866126,58.4761
1340124926126,58.2290
1340124986126,58.2874
1340125046126,58.4255
1340125106126,58.4582
1340125166126,58.4279
1340125226136,58.5378
1340125286136,58.2656
1340125346136,58.3173
1340125406136,58.3087
1340125466136,58.4069
1340125526136,58.4898
1340125586136,58.2655
1340125646136,58.3448
1340125706136,58.3287
1340125766136,58.2945
1340125826136,58.2109
1340125886136,58.5543
1340125946136,58.3815
1340126006136,58.1833
1340126066136,58.1574
1340126126136,58.4248
1340126186136,58.1635
1340126246136,58.1782
1340126306136,58.2781
1340126366136,58.3459
1340126426136,58.1085
1340126486136,58.0777
1340126546136,58.1494
1340126606136,58.0263
1340126666136,57.9412
1340126726136,57.9727
1340126786136,58.2549
1340126846136,58.2184
1340126906136,58.1960
1340126966136,58.2031
1340127026136,58.1259
1340127086136,58.3317
1340127146136,58.1377
1340127206136,58.1956
1340127266136,58.1572
1340127326136,58.0567
1340127386136,58.0528
1340127446136,58.1595
1340127506136,57.9977
1340127566136,57.9406
1340127626136,58.1077
1340127686136,57.8748
1340127746136,58.1225
1340127806136,58.0155
1340127866136,57.9238
1340127926136,57.9264
1340127986136,58.0178
1340128046136,58.1049
1340128106136,58.0986
1340128166136,58.0670
1340128226136,58.0007
1340128286136,57.8798
1340128346136,58.1381
1340128406136,58.0938
1340128466136,58.0095
1340128526136,58.0139
1340128586136,57.9316
1340128646136,57.9950
1340128706136,58.1736
1340128766136,58.0454
1340128826146,57.9599
1340128886146,57.9869
1340128946146,57.9221
1340129006146,58.1321
1340129066146,58.1157
1340129126146,57.8750
1340129186146,57.9501
1340129246146,57.7562
1340129306146,57.9977
1340129366146,57.8790
1340129426146,57.9501
1340129486146,57.9235
1340129546146,58.0473
1340129606146,58.0200
1340129666146,57.8552
1340129726146,57.9697
1340129786146,58.0086
1340129846146,58.1058